TITAN 3C TRANSTAGE R/B, 3292

Orbit data source: Space-Track

TITAN 3C TRANSTAGE R/B, 3292 is space debris in GEO originally from a launch on Thu, 13 Jun 1968 UTC launched from the Air Force Eastern Test Range (AFETR). Debris objects in space refer to the collection of defunct objects orbiting the Earth. Examples of debris include non-operational satellites, rocket bodies, and fragments generated from explosions, collisions, or faulty payload assembly.

Not visible in the next 10 days
Identifier
3292, 1968-050J
Orbit
GEO
Country
Flag of USUS
Related business
Manufacturer
Martin Marietta
Mission
Spacecraft
Bus & Motor
TRANSTAGE, Unknown motor
Mass
~1,950 kg wet, ~1,950 kg dry
Launch date (UTC)
1968-06-13 (57 years ago)
Launch vehicle
Unknown
Launch site
Air Force Eastern Test Range (AFETR)
Object type
Payload
Rocket body
Debris
Shape & HBR
Cyl + 2 Nozzle, 2.3 m
Radar Cross Section
14.974 m², Large (>1 m²)

Expand to show TLE details & history
Last TLE update: 20 hours ago

TLE from 20 hours ago
0 TITAN 3C TRANSTAGE R/B
1 03292U 68050J   25260.21805157 -.00000144  00000-0  00000-0 0  9999
2 03292   7.0497  55.3041 0173671   0.1287 339.4409  1.05593883 43614
Epoch: 2025-09-17T05:13Z
TLE epoch observation values (Epoch: 2025-09-17T05:13:59.655Z)
Latitude
-2.55261°
Longitude
-40.58925°
Altitude
33,697.858 km
Speed
3.179 km/s
True Right ascension
02h 17m 13s
True Declination
-2° 32' 60"
Sunlit
Object was in daylight at epoch
Visualization orbit readout
Latitude
Unknown
Longitude
Unknown
Altitude
Unknown
Speed
Unknown
Apparent Right ascension
Unknown
Apparent Declination
Unknown
Sunlit
N/A
Visualization observer readout
Local Sidereal Time
17:34:30
Azimuth
Unknown
Elevation
Unknown
Doppler factor
Unknown
Orbital elements
Apogee altitude
35,066.203 km
Perigee altitude
33,651.241 km
Semi-major axis
40,736.859 km
Eccentricity
0.01737
Inclination
7.0497°
RAAN
55.3041°
Arg. of periapsis
0.1287°
True anomaly
338.72755°
Mean anomaly
339.4409°
Eccentric anomaly
339.08569°
Mean motion
0.26397 °/min
Orbital period
1,363.77 mins
BSTAR
0
Loading maneuver chart data...
Computing Atmospheric mass density...
Loading historical data...
Loading historical data...
Loading historical data...
Loading historical data...
Loading historical data...
Loading historical data...
Loading historical data...

Documentation

Showing up to 5 results
|